Location: Heppenheim
(49.6410°N, 8.6370°E)
Time: 16:27:23
(UTC+02:00)

ISS - Pass Details

Date: 11 May 2026
Orbit: 414 x 424 km, 51.6° (Epoch: 21 May)

Event Time Altitude Azimuth Distance (km) Brightness Sun altitude
Rises 00:05:31 0° 271° (W) 2,351 0.3 -20.5°
Reaches altitude 10° 00:07:37 10° 275° (W) 1,490 -0.7 -20.6°
Maximum altitude 00:10:56 60° 356° (N) 483 -3.3 -20.7°
Enters shadow 00:12:06 35° 61° (ENE) 694 -2.6 -20.8°
